[[{"header":{"parameterUnit":"m.s-1","parameterCategory":2,"la1":30.2991,"la2":30.254,"lo1":-89.0895,"lo2":-89.0444,"dy":0.0017,"dx":0.0017,"nx":28,"ny":28,"refTime":"2024-06-06T09:00:00:Z","depth":"0","parameterNumber":2,"parameterNumberName":"U-component_of_CURRENTS"},"data":[0,0,0,0,0,0,0,0,0,0,0,0,0,0,0,0,0,0,0,0,0,0,0,0,0,0,0,0,0,0,0,0,0,0,0,0,0,0,0,0,0,0,0,0,0,0,0,0,0,0,0,0,0,0,0,0,0,0,0.4016,0.4016,0,0.4027,0.4027,0.4027,0.3993,0.3993,0.3992,0.3991,0.3979,0.3979,0.398,0,0,0,0,0,0,0,0,0,0,0,0,0,0.3994,0.3994,0.4016,0.4016,0.4017,0.4027,0.4027,0.4027,0.3993,0.3993,0.3992,0.3991,0.3979,0.3979,0.398,0,0,0,0,0,0,0,0,0,0,0,0,0,0.4001,0.3994,0.4016,0.4004,0.4003,0.4027,0.4027,0.4027,0.3994,0.3993,0.3991,0.3991,0.3979,0.3979,0.398,0.4004,0,0,0.3981,0.3981,0,0,0,0,0,0,0,0,0.4,0.4001,0.4005,0.4005,0.4004,0.4011,0.4015,0.4019,0.3994,0.3994,0.3991,0.399,0.399,0.399,0.399,0.4004,0.4003,0.3981,0.3982,0.3982,0.3982,0,0,0,0,0,0,0,0.4,0.4001,0.4017,0.4006,0.4005,0.4008,0.4007,0.4015,0.3995,0.3994,0.3992,0.3999,0.3989,0.3989,0.3989,0.4003,0.3981,0.3982,0.3982,0.3982,0.415,0.4154,0,0,0,0,0,0,0.4005,0.4,0.4017,0.4018,0.4003,0.4009,0.4008,0.4007,0.3995,0.3994,0.4,0.3998,0.3989,0.3989,0.3989,0.4107,0.3982,0.3982,0.3982,0.4145,0.415,0.4155,0,0,0,0,0,0,0.4004,0.4006,0.4016,0.4012,0.4014,0.4011,0.401,0.4008,0.4014,0.4001,0.3998,0.4009,0.3988,0.3988,0.4019,0.4103,0.3982,0.3983,0.4141,0.4147,0.4153,0.4286,0,0,0,0,0,0,0.4004,0.4006,0.401,0.4012,0.4015,0.404,0.4011,0.4009,0.4021,0.4018,0.4008,0.4005,0.3987,0.4019,0.402,0.4101,0.3983,0.4135,0.4143,0.4151,0.4276,0.4296,0.4313,0,0,0,0,0,0.4003,0.4014,0.401,0.4013,0.4019,0.4041,0.4043,0.4034,0.4023,0.4034,0.4037,0.4006,0.407,0.4021,0.4022,0.4105,0.4132,0.4141,0.415,0.4268,0.4292,0.4312,0,0,0,0,0,0,0.4004,0.4013,0.4007,0.402,0.4034,0.4037,0.4049,0.4046,0.4057,0.4057,0.4036,0.4035,0.4104,0.4086,0.4033,0.4182,0.4106,0.4115,0.4196,0.4218,0.4236,0.427,0.3984,0,0,0,0,0,0.4009,0.4019,0.4029,0.4041,0.405,0.4053,0.4062,0.4062,0.4071,0.4074,0.4071,0.4093,0.4145,0.4161,0.4185,0.4247,0.4277,0.4312,0.433,0.4345,0.4378,0.4511,0.4545,0.4186,0.4186,0.4185,0,0,0.4012,0.402,0.4024,0.4043,0.405,0.4083,0.4055,0.4079,0.4123,0.4074,0.4127,0.4147,0.4176,0.4258,0.4289,0.425,0.4461,0.4357,0.437,0.4395,0.4525,0.456,0.4591,0.4192,0.4191,0.419,0,0,0.4028,0.4033,0.4048,0.407,0.4095,0.411,0.4122,0.4138,0.4162,0.4206,0.422,0.4299,0.4314,0.4396,0.4431,0.4569,0.4552,0.457,0.4689,0.4818,0.4849,0.4876,0.4942,0.4974,0.458,0.458,0.4581,0,0.4032,0.4052,0.4058,0.4088,0.4117,0.4128,0.4166,0.4205,0.4234,0.4294,0.4235,0.4388,0.44,0.458,0.4631,0.4615,0.4652,0.4595,0.4843,0.487,0.4896,0.4957,0.4991,0.4588,0.4587,0.4586,0.4586,0,0.406,0.4086,0.4103,0.4147,0.4184,0.4219,0.4275,0.4332,0.4353,0.4402,0.4549,0.4582,0.4683,0.4716,0.4706,0.4927,0.488,0.4847,0.4783,0.494,0.4994,0.5027,0.4599,0.4596,0.4594,0.4592,0,0,0.4039,0.4107,0.4114,0.4151,0.422,0.4253,0.4365,0.448,0.4585,0.4629,0.4778,0.4892,0.4924,0.4972,0.5002,0.5117,0.532,0.5061,0.5065,0.512,0.557,0.5392,0.5409,0.5323,0.533,0.5336,0.5527,0,0.4057,0.4117,0.4159,0.4242,0.4281,0.436,0.4468,0.4586,0.4677,0.4824,0.4939,0.5065,0.5021,0.5084,0.5206,0.5302,0.5416,0.5269,0.5416,0.542,0.5238,0.5446,0.526,0.5403,0.5559,0.5564,0.5568,0,0.4066,0.4111,0.4178,0.4306,0.4335,0.4397,0.4591,0.4695,0.4925,0.5002,0.5169,0.5239,0.5458,0.5364,0.5625,0.5527,0.5573,0.5619,0.5626,0.5442,0.5306,0.5277,0.5457,0.5348,0.5618,0.5614,0.561,0,0.4031,0.4131,0.4186,0.4221,0.4363,0.4439,0.4538,0.475,0.4884,0.5134,0.5251,0.5475,0.5596,0.5722,0.5798,0.5738,0.6041,0.5964,0.585,0.5835,0.5699,0.5659,0.5788,0.6161,0.616,0.616,0.6159,0,0.4024,0.4074,0.4171,0.42,0.4309,0.4424,0.459,0.4732,0.4979,0.5163,0.5339,0.5502,0.5693,0.5861,0.5903,0.598,0.6129,0.5928,0.5908,0.5733,0.5696,0.5605,0.5531,0.6167,0.6165,0.6164,0.6163,0,0.3964,0.4026,0.4097,0.4234,0.4282,0.436,0.4582,0.4726,0.4954,0.5205,0.5294,0.5588,0.5786,0.5933,0.6147,0.6096,0.6023,0.6165,0.5908,0.5852,0.5569,0.5507,0.5385,0.5227,0.6089,0.6086,0.6083,0,0.393,0.3956,0.4081,0.4128,0.4182,0.4317,0.4431,0.4676,0.4833,0.523,0.5347,0.5632,0.5797,0.6032,0.6032,0.6103,0.5941,0.5915,0.5767,0.5582,0.5504,0.5266,0.5126,0.5649,0.5644,0.5639,0.5635,0,0.387,0.3912,0.3968,0.4057,0.4151,0.428,0.4454,0.4567,0.4882,0.508,0.5356,0.553,0.5772,0.5762,0.5829,0.5837,0.5626,0.5812,0.5747,0.5288,0.4923,0.4748,0.5452,0.5594,0.5598,0.5601,0.5603,0.5605,0.3816,0.3833,0.3906,0.3982,0.4089,0.4213,0.4265,0.4463,0.4658,0.4896,0.5166,0.5304,0.5473,0.554,0.5508,0.5348,0.5313,0.5212,0.5193,0.4999,0.4721,0.5281,0.5299,0.5301,0.5303,0.5305,0.5307,0,0.3723,0.3767,0.3838,0.3916,0.3975,0.4086,0.4254,0.4272,0.4379,0.4628,0.4793,0.4916,0.4924,0.5014,0.499,0.4813,0.459,0.4688,0.4395,0.4318,0.4975,0.483,0.4592,0.4593,0.4593,0.4593,0.4593,0.4593,0.3686,0.3693,0.373,0.3768,0.383,0.3854,0.3904,0.3939,0.4052,0.4106,0.4155,0.4295,0.4588,0.4697,0.4578,0.446,0.4155,0.3928,0.3916,0.4481,0.453,0.4576,0.4428,0.4111,0.411,0.3102,0.3095,0.3089]},{"header":{"parameterUnit":"m.s-1","parameterCategory":2,"la1":30.2991,"la2":30.254,"lo1":-89.0895,"lo2":-89.0444,"dy":0.0017,"dx":0.0017,"nx":28,"ny":28,"refTime":"2024-06-06T09:00:00:Z","depth":"0","parameterNumber":3,"parameterNumberName":"V-component_of_CURRENTS"},"data":[0,0,0,0,0,0,0,0,0,0,0,0,0,0,0,0,0,0,0,0,0,0,0,0,0,0,0,0,0,0,0,0,0,0,0,0,0,0,0,0,0,0,0,0,0,0,0,0,0,0,0,0,0,0,0,0,0,0,0.0137,0.0137,0,0.005,0.0049,0.0048,-0.0014,-0.0015,-0.0015,-0.0015,-0.0131,-0.0134,-0.0136,0,0,0,0,0,0,0,0,0,0,0,0,0,0.0183,0.0182,0.0137,0.0137,0.0136,0.005,0.0049,0.0047,-0.0014,-0.0015,-0.0015,-0.0015,-0.013,-0.0133,-0.0137,0,0,0,0,0,0,0,0,0,0,0,0,0,0.0134,0.0182,0.0138,0.0096,0.0092,0.005,0.0049,0.0047,-0.0014,-0.0015,-0.0015,-0.0016,-0.0129,-0.0133,-0.0137,-0.0154,0,0,-0.015,-0.0152,0,0,0,0,0,0,0,0,0.0137,0.0132,0.0103,0.0099,0.0094,0.003,0.0022,-0.0021,-0.0014,0.0024,-0.0015,-0.0016,-0.0078,-0.0086,-0.0104,-0.016,-0.0165,-0.015,-0.0153,-0.0155,-0.0156,0,0,0,0,0,0,0,0.014,0.0135,0.01,0.0102,0.0097,0.0059,0.0052,0.0013,-0.0026,0.002,0.0016,0.001,-0.0081,-0.01,-0.0108,-0.0166,-0.015,-0.0154,-0.0156,-0.0158,-0.0244,-0.0244,0,0,0,0,0,0,0.016,0.0139,0.0103,0.0098,0.0117,0.0059,0.0051,0.0049,-0.0025,-0.0036,0.0011,0.0008,-0.0093,-0.0103,-0.0112,-0.0117,-0.0155,-0.0158,-0.0161,-0.0245,-0.0244,-0.0244,0,0,0,0,0,0,0.0161,0.0158,0.0107,0.0118,0.0109,0.0059,0.0057,0.0048,0.0032,-0.0032,-0.0044,0.0005,-0.0094,-0.0106,-0.014,-0.0123,-0.016,-0.0164,-0.0245,-0.0245,-0.0244,-0.014,0,0,0,0,0,0,0.0163,0.0159,0.0164,0.012,0.0109,0.0093,0.0058,0.0047,0.003,0.0025,-0.004,-0.0052,-0.0095,-0.0133,-0.0144,-0.0129,-0.0167,-0.0245,-0.0245,-0.0244,-0.0143,-0.0136,-0.0129,0,0,0,0,0,0.0165,0.018,0.0165,0.0161,0.0118,0.0093,0.0085,0.0045,0.003,0.0028,-0.0016,-0.0049,-0.0139,-0.0136,-0.0149,-0.0135,-0.0245,-0.0245,-0.0244,-0.0147,-0.0137,-0.013,0,0,0,0,0,0,0.0201,0.0174,0.0157,0.0162,0.0134,0.0084,0.0082,0.0054,0.0017,0.0015,-0.0047,-0.0062,-0.0088,-0.0127,-0.0123,-0.0161,-0.0197,-0.0199,-0.0119,-0.0111,-0.0104,-0.0063,-0.0171,0,0,0,0,0,0.0213,0.0219,0.018,0.0185,0.0176,0.013,0.0116,0.0091,0.0053,0.0036,-0.0009,-0.0056,-0.0096,-0.0114,-0.016,-0.0175,-0.0188,-0.0176,-0.0169,-0.0163,-0.014,-0.0145,-0.0135,-0.0242,-0.0243,-0.0243,0,0,0.0228,0.0215,0.0217,0.0193,0.0169,0.0169,0.012,0.0109,0.0112,0.003,0.002,-0.0035,-0.0097,-0.0119,-0.0133,-0.0147,-0.0139,-0.0162,-0.0156,-0.0136,-0.0143,-0.0132,-0.0123,-0.0242,-0.0242,-0.0242,0,0,0.0267,0.0251,0.0269,0.0253,0.0228,0.0203,0.0205,0.0162,0.0146,0.0123,0.0068,0.0028,-0.0034,-0.0069,-0.0097,-0.0078,-0.0106,-0.0096,-0.002,-0.0025,-0.0015,-0.0007,-0.0002,0.0006,-0.0086,-0.0086,-0.0086,0,0.0286,0.0305,0.0269,0.0281,0.0282,0.0226,0.0248,0.0223,0.0174,0.0177,0.0134,0.0059,-0.0008,-0.0015,-0.0018,-0.0059,-0.0059,-0.0043,-0.0012,-0.0004,0.0003,0.0006,0.0013,-0.0081,-0.0081,-0.0082,-0.0082,0,0.0335,0.035,0.0361,0.0363,0.0357,0.0366,0.0333,0.0328,0.0297,0.0272,0.0253,0.0165,0.0124,0.0091,0.0036,0.0054,0.004,-0.0003,-0.0023,0.0021,0.002,0.0026,-0.0073,-0.0075,-0.0077,-0.0078,0,0,0.0387,0.0396,0.0403,0.0428,0.0406,0.0415,0.0424,0.0428,0.0461,0.0392,0.0433,0.0327,0.0282,0.0247,0.0177,0.0165,0.0189,0.0111,0.0108,0.0135,0.0201,0.0142,0.0142,0.0161,0.0163,0.0164,0.0184,0,0.0441,0.0496,0.0481,0.0538,0.0567,0.0533,0.0558,0.0553,0.0533,0.0556,0.0477,0.0473,0.0342,0.0336,0.0296,0.0227,0.021,0.0189,0.0137,0.0136,0.0094,0.0148,0.0174,0.019,0.019,0.0191,0.0191,0,0.0502,0.0534,0.0603,0.0652,0.0663,0.069,0.0741,0.0755,0.0759,0.0748,0.0719,0.0659,0.0621,0.0509,0.0412,0.0412,0.0314,0.0251,0.0249,0.0166,0.0089,0.0141,0.02,-0.0034,0.02,0.0199,0.0199,0,0.0579,0.0628,0.0696,0.0708,0.0744,0.0784,0.0808,0.0823,0.0875,0.0889,0.094,0.085,0.0854,0.0714,0.0536,0.0492,0.0451,0.0367,0.0224,0.0219,0.0216,0.0208,0.006,0.0308,0.0308,0.0308,0.0308,0,0.0652,0.0708,0.0746,0.0786,0.089,0.088,0.0992,0.1001,0.1058,0.1171,0.1055,0.1136,0.0911,0.0841,0.0637,0.0463,0.0518,0.0263,0.0227,0.025,0.0245,0.0018,-0.0117,0.0309,0.0309,0.0308,0.0308,0,0.0726,0.0745,0.0832,0.0896,0.0932,0.101,0.1123,0.1205,0.1242,0.1395,0.1421,0.1385,0.1294,0.1048,0.0855,0.0626,0.0312,0.0359,0.0402,0.0369,-0.0024,-0.0152,-0.0329,-0.0432,0.0212,0.0211,0.021,0,0.0767,0.0821,0.0925,0.0996,0.1035,0.1147,0.1239,0.1297,0.1408,0.1569,0.1673,0.1635,0.1657,0.133,0.0912,0.0562,0.0312,0.0331,0.0217,-0.0022,-0.019,-0.0296,-0.0377,0.0265,0.0264,0.0264,0.0264,0,0.0852,0.089,0.0963,0.1108,0.1221,0.1356,0.1501,0.1622,0.174,0.1902,0.2107,0.2152,0.183,0.1495,0.0965,0.0696,0.016,0.0307,0.0063,-0.0154,-0.0276,-0.0399,0.0225,0.026,0.026,0.0261,0.0261,0.0261,0.0921,0.0989,0.1092,0.1233,0.1368,0.1563,0.171,0.1901,0.2141,0.2413,0.2422,0.2548,0.2022,0.1309,0.0893,0.0131,0.0109,-0.0103,-0.023,-0.0309,-0.0445,0.0162,0.0138,0.0137,0.0137,0.0137,0.0137,0,0.1002,0.1081,0.1213,0.1392,0.1559,0.1619,0.1885,0.2067,0.2396,0.2641,0.2825,0.2651,0.1995,0.1282,0.0259,-0.0289,-0.0483,-0.0587,-0.0722,-0.0775,-0.0214,-0.0252,-0.0365,-0.0365,-0.0365,-0.0365,-0.0365,-0.0364,0.105,0.1181,0.1247,0.1526,0.1665,0.1921,0.2089,0.2386,0.2615,0.2941,0.3041,0.3054,0.2535,0.0737,-0.0502,-0.0793,-0.1148,-0.1244,-0.1437,-0.1062,-0.1026,-0.0992,-0.106,-0.1342,-0.1343,-0.1919,-0.1925,-0.193]}],[{"header":{"parameterUnit":"m.s-1","parameterCategory":2,"la1":30.2991,"la2":30.254,"lo1":-89.0895,"lo2":-89.0444,"dy":0.0017,"dx":0.0017,"nx":28,"ny":28,"refTime":"2024-06-06T09:00:00:Z","depth":"2","parameterNumber":2,"parameterNumberName":"U-component_of_CURRENTS"},"data":[0,0,0,0,0,0,0,0,0,0,0,0,0,0,0,0,0,0,0,0,0,0,0,0,0,0,0,0,0,0,0,0,0,0,0,0,0,0,0,0,0,0,0,0,0,0,0,0,0,0,0,0,0,0,0,0,0,0,0.3489,0.3489,0,0.3514,0.3514,0.3514,0.3501,0.3501,0.3501,0.35,0.3492,0.3492,0.3492,0,0,0,0,0,0,0,0,0,0,0,0,0,0.3439,0.344,0.3489,0.3489,0.349,0.3514,0.3514,0.3514,0.3501,0.3501,0.3501,0.35,0.3491,0.3492,0.3492,0,0,0,0,0,0,0,0,0,0,0,0,0,0.3459,0.344,0.3489,0.3489,0.349,0.3514,0.3514,0.3514,0.3502,0.3501,0.3501,0.35,0.3491,0.3492,0.3492,0.3502,0,0,0.3492,0.3492,0,0,0,0,0,0,0,0,0.3458,0.346,0.3489,0.349,0.349,0.3507,0.3493,0.3509,0.3502,0.3493,0.35,0.35,0.3496,0.3496,0.3497,0.3501,0.3501,0.3492,0.3492,0.3492,0.3492,0,0,0,0,0,0,0,0.3456,0.3459,0.3495,0.349,0.3491,0.3492,0.3493,0.3496,0.3494,0.3494,0.3494,0.3503,0.3496,0.3497,0.3497,0.3501,0.3492,0.3492,0.3492,0.3492,0.3599,0.3602,0,0,0,0,0,0,0.3461,0.3458,0.3494,0.3496,0.3476,0.3493,0.3495,0.3499,0.3494,0.3495,0.3503,0.3502,0.3497,0.3497,0.3496,0.3573,0.3492,0.3492,0.3492,0.3597,0.36,0.3603,0,0,0,0,0,0,0.3459,0.3463,0.3493,0.348,0.3485,0.3495,0.35,0.35,0.3516,0.3502,0.3501,0.352,0.3497,0.3496,0.3521,0.3569,0.3492,0.3492,0.3593,0.3598,0.3602,0.3683,0,0,0,0,0,0,0.3458,0.3463,0.3472,0.3481,0.3486,0.3519,0.35,0.3501,0.3522,0.3522,0.3516,0.3514,0.3496,0.3522,0.3522,0.3568,0.3492,0.359,0.3595,0.36,0.3677,0.369,0.3701,0,0,0,0,0,0.3456,0.347,0.3473,0.3478,0.3497,0.3521,0.3524,0.3526,0.3524,0.3537,0.3541,0.3515,0.3556,0.3523,0.3523,0.3571,0.3587,0.3594,0.36,0.3672,0.3687,0.37,0,0,0,0,0,0,0.3451,0.3471,0.3473,0.3493,0.3512,0.352,0.3537,0.354,0.3554,0.3556,0.3538,0.3538,0.3579,0.3569,0.3534,0.3622,0.3573,0.3579,0.3628,0.3642,0.3654,0.3665,0.3492,0,0,0,0,0,0.3457,0.3475,0.3492,0.351,0.3523,0.3534,0.3547,0.3552,0.3564,0.3569,0.3568,0.358,0.3605,0.3617,0.3625,0.3667,0.3685,0.3704,0.3716,0.3726,0.3738,0.3825,0.3845,0.3624,0.3624,0.3624,0,0,0.346,0.3475,0.3484,0.3512,0.3526,0.3554,0.354,0.3569,0.3599,0.3567,0.3606,0.3614,0.3624,0.3672,0.3692,0.3669,0.3799,0.3734,0.3742,0.3749,0.3834,0.3855,0.3874,0.3628,0.3627,0.3627,0,0,0.3474,0.3491,0.351,0.3533,0.3566,0.3579,0.3594,0.3616,0.3633,0.3671,0.3668,0.3709,0.3729,0.3757,0.3772,0.3859,0.3854,0.3868,0.3939,0.4024,0.4042,0.4059,0.4107,0.4127,0.3879,0.3879,0.3879,0,0.3477,0.3503,0.352,0.3549,0.3575,0.3595,0.3627,0.3654,0.3683,0.3711,0.3695,0.3777,0.3775,0.3861,0.3892,0.3885,0.3922,0.3878,0.4039,0.4056,0.4071,0.4116,0.4138,0.3884,0.3883,0.3883,0.3883,0,0.3502,0.3531,0.355,0.3593,0.3625,0.3658,0.3699,0.3738,0.3763,0.379,0.3873,0.389,0.3944,0.3959,0.3948,0.407,0.4056,0.4038,0.3998,0.4099,0.414,0.416,0.3891,0.3889,0.3888,0.3886,0,0,0.3481,0.3552,0.3558,0.3584,0.3652,0.3674,0.375,0.3816,0.3873,0.3918,0.4004,0.4056,0.4077,0.4099,0.411,0.4182,0.4314,0.4165,0.4167,0.4204,0.4492,0.4403,0.4416,0.4333,0.4337,0.434,0.4474,0,0.3493,0.3545,0.3587,0.3645,0.3675,0.3736,0.38,0.3869,0.3934,0.4022,0.4085,0.4163,0.4131,0.4177,0.4248,0.4302,0.4374,0.4278,0.4397,0.44,0.4302,0.4439,0.4075,0.4158,0.4494,0.4498,0.45,0,0.3496,0.3534,0.3588,0.3669,0.3689,0.3736,0.385,0.3915,0.4051,0.411,0.4217,0.4266,0.4392,0.4348,0.4504,0.445,0.4483,0.4513,0.4519,0.4421,0.435,0.4115,0.4182,0.4534,0.4532,0.4529,0.4527,0,0.345,0.3531,0.3572,0.3599,0.3698,0.3746,0.3813,0.3939,0.4013,0.4189,0.4276,0.4407,0.4496,0.458,0.4637,0.4595,0.4798,0.4741,0.469,0.4682,0.4386,0.4346,0.486,0.486,0.486,0.486,0.4859,0,0.3434,0.3464,0.3554,0.3572,0.3635,0.3722,0.3819,0.3913,0.4071,0.4172,0.4322,0.4433,0.4565,0.4682,0.471,0.4775,0.4863,0.4736,0.4732,0.4403,0.4365,0.4693,0.4672,0.4865,0.4863,0.4863,0.4862,0,0.3366,0.3427,0.3473,0.3575,0.3611,0.3657,0.3806,0.3874,0.4051,0.4205,0.4274,0.449,0.4649,0.4756,0.4899,0.4861,0.493,0.4921,0.4513,0.446,0.4734,0.4716,0.4889,0.4887,0.4886,0.4885,0.4884,0,0.3332,0.3351,0.3449,0.3477,0.3523,0.3612,0.367,0.3841,0.393,0.4217,0.4283,0.4513,0.4633,0.4826,0.4819,0.4879,0.4944,0.4547,0.4397,0.4769,0.4748,0.4732,0.4716,0.4033,0.4025,0.4018,0.4013,0,0.3265,0.3305,0.3343,0.3398,0.3453,0.3514,0.3623,0.3686,0.3897,0.4034,0.4223,0.4356,0.457,0.4475,0.4568,0.4539,0.451,0.4419,0.4951,0.4083,0.3973,0.3948,0.3959,0.3956,0.3962,0.3966,0.3969,0.3971,0.3211,0.3216,0.3265,0.3306,0.3359,0.3391,0.3392,0.3512,0.3612,0.3766,0.4007,0.4089,0.4179,0.4146,0.4045,0.3966,0.427,0.4059,0.4074,0.4097,0.3976,0.3869,0.3809,0.3813,0.3817,0.3821,0.3824,0,0.3118,0.3138,0.3169,0.3189,0.3171,0.3257,0.3325,0.3285,0.3311,0.35,0.3625,0.3434,0.3421,0.3509,0.3317,0.3334,0.325,0.3182,0.3029,0.3092,0.3146,0.2969,0.2539,0.2535,0.253,0.2526,0,0,0.3073,0.3047,0.3055,0.2985,0.2999,0.292,0.2918,0.2888,0.2955,0.2948,0.2975,0.3282,0.3434,0.2941,0.2889,0.2674,0.2844,0.2568,0.3613,0.3497,0.3544,0.3687,0.3493,0,0,0,0,0]},{"header":{"parameterUnit":"m.s-1","parameterCategory":2,"la1":30.2991,"la2":30.254,"lo1":-89.0895,"lo2":-89.0444,"dy":0.0017,"dx":0.0017,"nx":28,"ny":28,"refTime":"2024-06-06T09:00:00:Z","depth":"2","parameterNumber":3,"parameterNumberName":"V-component_of_CURRENTS"},"data":[0,0,0,0,0,0,0,0,0,0,0,0,0,0,0,0,0,0,0,0,0,0,0,0,0,0,0,0,0,0,0,0,0,0,0,0,0,0,0,0,0,0,0,0,0,0,0,0,0,0,0,0,0,0,0,0,0,0,0.0087,0.0086,0,0.0006,0.0005,0.0004,-0.0049,-0.0049,-0.0049,-0.005,-0.0139,-0.0141,-0.0143,0,0,0,0,0,0,0,0,0,0,0,0,0,0.0127,0.0127,0.0087,0.0086,0.0085,0.0007,0.0005,0.0004,-0.0049,-0.0049,-0.005,-0.005,-0.0138,-0.0141,-0.0144,0,0,0,0,0,0,0,0,0,0,0,0,0,0.0083,0.0127,0.0087,0.0051,0.0047,0.0007,0.0005,0.0004,-0.0049,-0.0049,-0.005,-0.005,-0.0138,-0.0141,-0.0144,-0.0159,0,0,-0.0154,-0.0156,0,0,0,0,0,0,0,0,0.0085,0.0081,0.0057,0.0053,0.0049,-0.001,-0.0013,-0.005,-0.0049,-0.0015,-0.005,-0.005,-0.0095,-0.0102,-0.0119,-0.0163,-0.0167,-0.0154,-0.0156,-0.0158,-0.0159,0,0,0,0,0,0,0,0.0089,0.0084,0.0053,0.0056,0.0051,0.0015,0.0009,-0.0021,-0.0054,-0.0018,-0.0021,-0.0027,-0.0098,-0.0116,-0.0122,-0.0168,-0.0154,-0.0157,-0.0159,-0.0161,-0.0216,-0.0215,0,0,0,0,0,0,0.0106,0.0087,0.0056,0.0051,0.0069,0.0015,0.0008,0.0008,-0.0054,-0.0063,-0.0027,-0.0029,-0.011,-0.0118,-0.0125,-0.0119,-0.0158,-0.0161,-0.0163,-0.0216,-0.0216,-0.0215,0,0,0,0,0,0,0.0107,0.0104,0.0059,0.0068,0.006,0.0016,0.0015,0.0006,-0.0007,-0.006,-0.007,-0.0031,-0.0111,-0.012,-0.0144,-0.0124,-0.0162,-0.0165,-0.0217,-0.0216,-0.0215,-0.0125,0,0,0,0,0,0,0.0109,0.0105,0.011,0.007,0.006,0.0047,0.0015,0.0005,-0.001,-0.0014,-0.0067,-0.0076,-0.0112,-0.0139,-0.0147,-0.013,-0.0168,-0.0217,-0.0216,-0.0215,-0.0129,-0.0122,-0.0115,0,0,0,0,0,0.0111,0.0124,0.0111,0.0107,0.0069,0.0047,0.0039,0.0004,-0.0009,-0.001,-0.0046,-0.0074,-0.0139,-0.0141,-0.0151,-0.0134,-0.0218,-0.0217,-0.0216,-0.0132,-0.0123,-0.0116,0,0,0,0,0,0,0.0142,0.0119,0.0104,0.0109,0.0084,0.0039,0.0037,0.0013,-0.0017,-0.0019,-0.007,-0.0081,-0.0096,-0.0128,-0.013,-0.0148,-0.0182,-0.0183,-0.0115,-0.0107,-0.01,-0.0072,-0.0171,0,0,0,0,0,0.0153,0.0159,0.0125,0.013,0.0122,0.0081,0.0067,0.0046,0.0014,0.0,-0.0036,-0.0073,-0.01,-0.0113,-0.0147,-0.0155,-0.0185,-0.0151,-0.0144,-0.0138,-0.0122,-0.0149,-0.0143,-0.0211,-0.0211,-0.0211,0,0,0.0166,0.0155,0.0157,0.0137,0.0115,0.0117,0.0072,0.0062,0.0067,-0.0004,-0.0009,-0.0053,-0.0099,-0.011,-0.0118,-0.0132,-0.0136,-0.0136,-0.013,-0.0118,-0.0147,-0.014,-0.0134,-0.021,-0.021,-0.0211,0,0,0.0201,0.0187,0.0203,0.019,0.0168,0.0146,0.0149,0.0111,0.0098,0.0083,0.0038,0.0009,-0.0037,-0.0062,-0.008,-0.0055,-0.0102,-0.0068,-0.0006,-0.0032,-0.0026,-0.0021,-0.0055,-0.0054,-0.006,-0.006,-0.006,0,0.0217,0.0235,0.0204,0.0216,0.0218,0.0168,0.0189,0.0168,0.0128,0.0129,0.0095,0.0038,-0.001,-0.001,-0.0007,-0.0037,-0.0063,-0.0031,-0.0021,-0.0017,-0.0013,-0.0049,-0.0049,-0.0055,-0.0056,-0.0056,-0.0057,0,0.0261,0.0276,0.0286,0.0291,0.0287,0.0296,0.027,0.0266,0.0241,0.0217,0.0205,0.0136,0.0105,0.0083,0.0042,0.0049,0.0019,-0.0011,-0.0037,-0.0001,-0.0041,-0.0043,-0.0049,-0.0051,-0.0052,-0.0053,0,0,0.0305,0.0317,0.0323,0.0347,0.0331,0.034,0.0354,0.0357,0.0384,0.0326,0.0354,0.0282,0.0239,0.0215,0.0159,0.0133,0.0119,0.0078,0.0074,0.0054,0.0058,0.0026,0.002,0.0092,0.0093,0.0093,0.0019,0,0.0353,0.0405,0.0394,0.0449,0.0476,0.0449,0.0475,0.047,0.0452,0.0462,0.0395,0.039,0.0293,0.0287,0.024,0.0156,0.012,0.0141,0.0018,0.0015,-0.001,0.0019,0.0052,-0.0011,0.0017,0.0017,0.0017,0,0.0408,0.0438,0.0502,0.0549,0.056,0.0587,0.0633,0.0647,0.064,0.0628,0.0596,0.0537,0.0488,0.0405,0.0272,0.0291,0.0183,0.0108,0.0103,0.0044,-0.002,-0.0043,-0.0016,0.0013,0.0014,0.0014,0.0014,0,0.0474,0.0521,0.0584,0.0596,0.0632,0.067,0.0694,0.0704,0.0748,0.0742,0.0772,0.0677,0.0657,0.0512,0.0327,0.0306,0.0183,0.0132,-0.0001,-0.0005,-0.0015,-0.002,0.0043,0.0043,0.0043,0.0044,0.0044,0,0.0539,0.0589,0.0627,0.0663,0.0759,0.0752,0.085,0.0858,0.0896,0.0977,0.0868,0.0906,0.0685,0.0578,0.0387,0.0192,0.0219,0.0022,-0.0019,0.0015,0.0014,0.0004,0.0001,0.0041,0.0041,0.0042,0.0042,0,0.0601,0.062,0.07,0.0761,0.0795,0.0866,0.0967,0.1035,0.1054,0.1159,0.1171,0.1088,0.0952,0.0714,0.0486,0.029,0.0096,0.0015,0.0064,0.0031,-0.0093,-0.0091,-0.0131,-0.0133,-0.0134,-0.0136,-0.0137,0,0.0638,0.0686,0.0783,0.0848,0.0885,0.0988,0.107,0.1118,0.1206,0.1282,0.1351,0.1252,0.1208,0.0843,0.0488,0.0156,0.0104,-0.0045,-0.0086,-0.0072,-0.0107,-0.0103,-0.01,-0.0071,-0.0071,-0.0071,-0.0072,0,0.0711,0.0744,0.0812,0.0946,0.1049,0.1171,0.1296,0.1394,0.1473,0.1562,0.1651,0.1623,0.1285,0.0948,0.0476,0.0249,0.0006,-0.0062,-0.0043,-0.0031,-0.002,-0.0054,-0.0051,-0.0074,-0.0074,-0.0074,-0.0074,-0.0073,0.0772,0.0832,0.0926,0.1054,0.1178,0.1345,0.1466,0.1604,0.1767,0.1907,0.1866,0.1827,0.1437,0.0842,0.0427,-0.0014,0.0011,-0.0152,-0.0148,-0.0145,-0.0124,-0.0116,-0.0184,-0.0185,-0.0185,-0.0185,-0.0186,0,0.0843,0.0911,0.1029,0.1187,0.133,0.1391,0.1611,0.1733,0.1938,0.2042,0.2103,0.1744,0.1362,0.0908,0.0257,-0.0128,-0.0153,-0.0252,-0.0202,-0.0195,-0.0191,-0.0172,-0.0246,-0.0247,-0.0248,-0.025,0,0,0.0884,0.0999,0.1053,0.1288,0.1408,0.1619,0.1754,0.1934,0.2056,0.2155,0.2131,0.2054,0.1509,0.1025,0.05,0.0122,0.0053,0.0051,0.0144,0.0273,0.0282,-0.0086,-0.0043,0,0,0,0,0]}],[{"header":{"parameterUnit":"m.s-1","parameterCategory":2,"la1":30.2991,"la2":30.254,"lo1":-89.0895,"lo2":-89.0444,"dy":0.0017,"dx":0.0017,"nx":28,"ny":28,"refTime":"2024-06-06T09:00:00:Z","depth":"4","parameterNumber":2,"parameterNumberName":"U-component_of_CURRENTS"},"data":[0,0,0,0,0,0,0,0,0,0,0,0,0,0,0,0,0,0,0,0,0,0,0,0,0,0,0,0,0,0,0,0,0,0,0,0,0,0,0,0,0,0,0,0,0,0,0,0,0,0,0,0,0,0,0,0,0,0,0.235,0.2351,0,0.2429,0.243,0.243,0.2497,0.2498,0.2499,0.25,0.2579,0.258,0.2581,0,0,0,0,0,0,0,0,0,0,0,0,0,0.2242,0.2244,0.235,0.2351,0.2353,0.2429,0.243,0.243,0.2497,0.2498,0.2499,0.25,0.2578,0.258,0.2581,0,0,0,0,0,0,0,0,0,0,0,0,0,0.2299,0.2244,0.235,0.2397,0.2402,0.2429,0.243,0.2431,0.2497,0.2498,0.25,0.2501,0.2578,0.258,0.2581,0.2562,0,0,0.2587,0.2587,0,0,0,0,0,0,0,0,0.2296,0.2302,0.2389,0.2394,0.24,0.2457,0.2421,0.2476,0.2496,0.2458,0.25,0.2502,0.2539,0.2544,0.2551,0.2566,0.2569,0.2587,0.2588,0.2589,0.2589,0,0,0,0,0,0,0,0.2292,0.2299,0.2378,0.239,0.2397,0.2409,0.2419,0.2431,0.2487,0.2461,0.2467,0.248,0.2542,0.2549,0.2554,0.257,0.2587,0.2588,0.2589,0.259,0.2703,0.2705,0,0,0,0,0,0,0.2287,0.2296,0.2376,0.2381,0.2354,0.241,0.2421,0.2435,0.2487,0.2497,0.2479,0.2483,0.2546,0.2551,0.2557,0.2659,0.2589,0.259,0.2591,0.2701,0.2704,0.2706,0,0,0,0,0,0,0.2284,0.2293,0.2373,0.2342,0.2354,0.2411,0.2426,0.2436,0.2496,0.25,0.251,0.2535,0.2547,0.2554,0.2614,0.2658,0.2591,0.2593,0.2699,0.2702,0.2705,0.2785,0,0,0,0,0,0,0.2281,0.2292,0.2324,0.2342,0.2356,0.242,0.2425,0.2436,0.2499,0.2507,0.2551,0.2557,0.2549,0.2611,0.2615,0.2659,0.2594,0.2696,0.27,0.2704,0.278,0.279,0.2799,0,0,0,0,0,0.2277,0.2306,0.2325,0.2336,0.239,0.2422,0.243,0.2473,0.2501,0.2532,0.2568,0.2558,0.2637,0.2614,0.2619,0.2664,0.2695,0.2699,0.2703,0.2775,0.2788,0.2799,0,0,0,0,0,0,0.2277,0.2316,0.2338,0.2379,0.2415,0.2435,0.2477,0.2502,0.2554,0.2578,0.2582,0.259,0.2661,0.265,0.2625,0.2708,0.2665,0.267,0.2718,0.273,0.274,0.2743,0.2595,0,0,0,0,0,0.229,0.2329,0.2358,0.24,0.2422,0.246,0.249,0.2518,0.2554,0.2582,0.2611,0.2643,0.2672,0.2694,0.2716,0.2758,0.2768,0.2791,0.28,0.2808,0.2815,0.2875,0.2891,0.272,0.272,0.272,0,0,0.2303,0.2332,0.2356,0.2405,0.244,0.2475,0.2483,0.2542,0.2582,0.2579,0.266,0.2685,0.2693,0.2746,0.2775,0.2749,0.2865,0.2814,0.2821,0.2823,0.2881,0.2898,0.2912,0.2723,0.2723,0.2722,0,0,0.2328,0.2376,0.241,0.2444,0.2505,0.2524,0.2552,0.2601,0.2642,0.271,0.272,0.2773,0.2822,0.2831,0.284,0.2915,0.2919,0.2932,0.298,0.3039,0.3053,0.3066,0.311,0.3126,0.2931,0.2931,0.2931,0,0.2348,0.2389,0.2427,0.2465,0.2502,0.2551,0.2591,0.2632,0.2698,0.2734,0.2754,0.2846,0.2858,0.2907,0.2938,0.2937,0.2972,0.2934,0.3052,0.3065,0.3076,0.3118,0.3135,0.2935,0.2935,0.2934,0.2934,0,0.2377,0.2432,0.246,0.2523,0.2564,0.2614,0.2663,0.2725,0.2786,0.2821,0.2915,0.2939,0.2993,0.3006,0.2999,0.3084,0.3083,0.3062,0.3021,0.3098,0.3137,0.3153,0.2942,0.294,0.2939,0.2938,0,0,0.2358,0.246,0.2476,0.2513,0.2603,0.2628,0.2713,0.2783,0.2843,0.2924,0.3003,0.306,0.3094,0.3106,0.3111,0.3156,0.327,0.3156,0.3157,0.3198,0.3412,0.3205,0.3202,0.3285,0.3288,0.329,0.3409,0,0.2375,0.2447,0.2499,0.2576,0.2613,0.269,0.2754,0.283,0.2909,0.2998,0.3054,0.3134,0.3125,0.3172,0.3221,0.3268,0.3316,0.324,0.3332,0.3334,0.3139,0.3214,0.33,0.342,0.3424,0.3426,0.3428,0,0.2373,0.2425,0.2502,0.2597,0.2623,0.2685,0.2798,0.2864,0.2991,0.3058,0.3155,0.321,0.3309,0.3286,0.3413,0.3377,0.3408,0.3428,0.3433,0.3219,0.3155,0.3325,0.3457,0.3455,0.3452,0.3451,0.3449,0,0.231,0.242,0.2483,0.2518,0.2634,0.27,0.2774,0.2895,0.2967,0.3117,0.3199,0.3306,0.3399,0.3461,0.3526,0.3497,0.3653,0.3607,0.3442,0.3429,0.3545,0.3529,0.3688,0.3688,0.3688,0.3688,0.3687,0,0.2273,0.2328,0.247,0.25,0.2582,0.268,0.2783,0.2873,0.3022,0.3102,0.3237,0.3312,0.3458,0.3558,0.358,0.3566,0.3705,0.3463,0.3447,0.3576,0.3563,0.3556,0.354,0.3692,0.3691,0.369,0.3689,0,0.2184,0.2281,0.2357,0.2502,0.2555,0.2618,0.279,0.2847,0.3016,0.3135,0.3199,0.3382,0.35,0.3605,0.3718,0.3622,0.3629,0.3585,0.3739,0.3729,0.3353,0.3339,0.3403,0.3396,0.3391,0.3387,0.3383,0,0.2137,0.2174,0.2342,0.239,0.2469,0.2585,0.2649,0.2825,0.289,0.3135,0.3168,0.337,0.3461,0.3463,0.358,0.361,0.3562,0.354,0.3411,0.3346,0.3326,0.332,0.3314,0.3374,0.3373,0.3372,0.337,0,0.2044,0.2132,0.2197,0.23,0.2387,0.2455,0.2576,0.261,0.28,0.2991,0.3066,0.3131,0.3259,0.333,0.3392,0.3396,0.3535,0.3483,0.3492,0.3371,0.3312,0.3296,0.3296,0.3352,0.3354,0.3356,0.3357,0,0.1985,0.2007,0.2109,0.2178,0.2272,0.2286,0.237,0.2445,0.2538,0.2806,0.2827,0.3031,0.3224,0.3221,0.3271,0.3272,0.3208,0.308,0.3109,0.3131,0.2984,0.2866,0.2764,0,0,0,0,0,0.1906,0.1912,0.197,0.2021,0.2101,0.2156,0.2291,0.2378,0.2574,0.2556,0.2686,0.2782,0.2864,0.2972,0.2918,0.3148,0.322,0.307,0.3086,0.3249,0.327,0.3121,0,0,0,0,0,0,0.185,0.1905,0.1916,0.1869,0.1874,0.1933,0.2009,0.2147,0.2149,0.2373,0.2436,0.2614,0.274,0.2873,0.2867,0.29,0.2851,0.3207,0.32,0.3237,0.3256,0.3274,0.3127,0,0,0,0,0]},{"header":{"parameterUnit":"m.s-1","parameterCategory":2,"la1":30.2991,"la2":30.254,"lo1":-89.0895,"lo2":-89.0444,"dy":0.0017,"dx":0.0017,"nx":28,"ny":28,"refTime":"2024-06-06T09:00:00:Z","depth":"4","parameterNumber":3,"parameterNumberName":"V-component_of_CURRENTS"},"data":[0,0,0,0,0,0,0,0,0,0,0,0,0,0,0,0,0,0,0,0,0,0,0,0,0,0,0,0,0,0,0,0,0,0,0,0,0,0,0,0,0,0,0,0,0,0,0,0,0,0,0,0,0,0,0,0,0,0,0.0082,0.0081,0,0.0026,0.0025,0.0025,-0.0011,-0.0012,-0.0012,-0.0012,-0.0072,-0.0074,-0.0075,0,0,0,0,0,0,0,0,0,0,0,0,0,0.0108,0.0108,0.0082,0.0081,0.008,0.0026,0.0025,0.0024,-0.0011,-0.0012,-0.0012,-0.0012,-0.0072,-0.0074,-0.0075,0,0,0,0,0,0,0,0,0,0,0,0,0,0.0078,0.0108,0.0082,0.0057,0.0054,0.0026,0.0025,0.0024,-0.0011,-0.0012,-0.0012,-0.0012,-0.0071,-0.0073,-0.0076,-0.0085,0,0,-0.0082,-0.0083,0,0,0,0,0,0,0,0,0.008,0.0077,0.0061,0.0058,0.0055,0.0015,0.0012,-0.0012,-0.0011,0.0012,-0.0012,-0.0012,-0.0043,-0.0047,-0.0059,-0.0088,-0.0091,-0.0083,-0.0084,-0.0085,-0.0085,0,0,0,0,0,0,0,0.0082,0.0079,0.0059,0.006,0.0057,0.0032,0.0028,0.0007,-0.0014,0.001,0.0008,0.0003,-0.0045,-0.0056,-0.006,-0.0092,-0.0082,-0.0084,-0.0086,-0.0087,-0.0111,-0.011,0,0,0,0,0,0,0.0094,0.0082,0.006,0.0057,0.0069,0.0032,0.0027,0.0027,-0.0014,-0.002,0.0003,0.0002,-0.0053,-0.0058,-0.0063,-0.005,-0.0085,-0.0087,-0.0088,-0.0111,-0.011,-0.011,0,0,0,0,0,0,0.0095,0.0093,0.0063,0.0068,0.0063,0.0032,0.0032,0.0026,0.0018,-0.0019,-0.0025,0.0002,-0.0053,-0.006,-0.0074,-0.0054,-0.0088,-0.009,-0.0112,-0.0111,-0.011,-0.0042,0,0,0,0,0,0,0.0096,0.0094,0.0098,0.007,0.0063,0.0055,0.0032,0.0025,0.0016,0.0013,-0.0022,-0.0028,-0.0054,-0.007,-0.0076,-0.0057,-0.0092,-0.0113,-0.0112,-0.011,-0.0045,-0.0039,-0.0033,0,0,0,0,0,0.0097,0.0107,0.0099,0.0096,0.007,0.0056,0.005,0.0026,0.0016,0.0017,-0.0007,-0.0027,-0.0066,-0.0072,-0.0079,-0.006,-0.0114,-0.0112,-0.0111,-0.0048,-0.004,-0.0033,0,0,0,0,0,0,0.0119,0.0104,0.0094,0.0098,0.0082,0.005,0.0049,0.0033,0.0014,0.0012,-0.0023,-0.0031,-0.0035,-0.0058,-0.0063,-0.0063,-0.0091,-0.0091,-0.0041,-0.0034,-0.0028,-0.001,-0.0094,0,0,0,0,0,0.0128,0.0134,0.011,0.0114,0.0109,0.0081,0.0072,0.0057,0.0035,0.0027,0.0001,-0.0021,-0.0035,-0.0042,-0.0063,-0.0064,-0.0097,-0.0055,-0.0049,-0.0044,-0.0034,-0.0068,-0.0065,-0.0105,-0.0105,-0.0105,0,0,0.0137,0.013,0.0132,0.012,0.0105,0.0109,0.0075,0.0068,0.0076,0.0024,0.0025,-0.0004,-0.0032,-0.0033,-0.0036,-0.0048,-0.0052,-0.0042,-0.0037,-0.003,-0.0066,-0.0063,-0.0059,-0.0103,-0.0104,-0.0104,0,0,0.0163,0.0154,0.0168,0.016,0.0146,0.0131,0.0134,0.0107,0.0101,0.0094,0.0063,0.0047,0.0021,0.0008,-0.0002,0.0025,-0.0022,0.0019,0.0066,0.0033,0.0036,0.0039,-0.0006,-0.0008,0.0026,0.0026,0.0026,0,0.0175,0.019,0.0169,0.0179,0.0184,0.0148,0.0166,0.0154,0.0127,0.013,0.0106,0.0074,0.0045,0.0052,0.0059,0.004,0.0006,0.0043,0.0041,0.0043,0.0044,-0.0002,-0.0006,0.0029,0.0029,0.0028,0.0028,0,0.0208,0.0222,0.0231,0.0238,0.0239,0.0248,0.0233,0.0233,0.0219,0.0203,0.02,0.0155,0.0138,0.0126,0.01,0.0102,0.007,0.005,0.0025,0.0052,0.0001,-0.0003,0.0034,0.0033,0.0032,0.0031,0,0,0.0236,0.0252,0.0258,0.028,0.0274,0.0283,0.03,0.0308,0.033,0.0292,0.0313,0.0275,0.0242,0.0229,0.0191,0.0162,0.0132,0.0114,0.0111,0.0072,0.0047,0.0032,0.0025,0.0108,0.0108,0.0108,0.0005,0,0.0272,0.0316,0.0312,0.0361,0.0384,0.037,0.0397,0.0398,0.0387,0.0395,0.0349,0.0349,0.0285,0.0283,0.0241,0.0163,0.0124,0.0161,0.0024,0.002,0.0006,0.0021,0.0107,0.0002,0.0,-0.0001,-0.0001,0,0.031,0.0338,0.0392,0.044,0.0451,0.0477,0.052,0.0537,0.0532,0.0525,0.0501,0.0456,0.0415,0.0357,0.0231,0.0255,0.0159,0.0089,0.0083,0.0045,-0.0003,-0.0031,-0.001,-0.001,-0.0009,-0.0008,-0.0008,0,0.0353,0.04,0.0453,0.0465,0.0505,0.0541,0.0569,0.0581,0.0619,0.0611,0.0629,0.0552,0.0532,0.0404,0.0246,0.0239,0.0096,0.0068,-0.004,-0.0043,-0.0031,-0.0032,-0.0023,-0.0023,-0.0022,-0.0022,-0.0022,0,0.0395,0.044,0.0484,0.0513,0.0598,0.0603,0.0687,0.07,0.073,0.0785,0.0704,0.0716,0.0543,0.0435,0.0276,0.0103,0.0112,-0.0027,-0.0064,-0.0001,0.0002,-0.0035,-0.0035,-0.0026,-0.0025,-0.0024,-0.0024,0,0.043,0.0454,0.0524,0.0587,0.0622,0.0684,0.0782,0.0835,0.0852,0.0919,0.0926,0.0844,0.0705,0.0511,0.03,0.016,-0.0013,-0.0081,-0.0003,-0.0035,-0.0141,-0.0136,-0.0202,-0.0203,-0.0204,-0.0205,-0.0206,0,0.045,0.0489,0.0586,0.0644,0.0681,0.0776,0.0848,0.0899,0.096,0.0997,0.1033,0.0929,0.0844,0.0539,0.0318,0.0013,-0.0035,-0.0138,-0.0137,-0.0127,-0.0157,-0.015,-0.0144,-0.0207,-0.0207,-0.0208,-0.0208,0,0.0491,0.0526,0.0585,0.0705,0.0797,0.0903,0.1008,0.1063,0.1122,0.1139,0.1129,0.0975,0.0815,0.0557,0.0316,0.0095,-0.0076,-0.015,-0.0149,-0.0149,-0.0135,-0.0161,-0.0154,-0.0212,-0.0211,-0.0211,-0.0211,0,0.0526,0.0573,0.0656,0.0762,0.0881,0.0998,0.105,0.1123,0.1185,0.1216,0.1205,0.103,0.0926,0.0599,0.0378,0.0159,0.0099,0.0015,0.0005,0.0007,0.009,0.0141,0.0124,0,0,0,0,0,0.0555,0.061,0.0707,0.0829,0.0945,0.1022,0.1144,0.1182,0.1239,0.1246,0.1232,0.1081,0.0772,0.0636,0.0416,0.0338,0.0045,0.0069,-0.0061,-0.0232,-0.0228,-0.0167,0,0,0,0,0,0,0.0575,0.0663,0.0706,0.0863,0.0953,0.1095,0.1177,0.1217,0.1219,0.1235,0.1076,0.101,0.0706,0.09,0.0408,0.0342,0.0224,-0.0071,-0.0077,-0.0234,-0.023,-0.0227,-0.0163,0,0,0,0,0]}]]